Starlink 32042

operational
NORAD ID: 60108 Int'l Des: 2024-117 Owner: SPXS Country: US Constellation: starlink
LEOCIRCULAR

Starlink 32042について

説明を読み込み中...

リアルタイム位置

3D地球を読み込み中...

次回通過

高度履歴

Altitude vs Time

uPlot chart will show altitude changes over time

軌道要素

1 60108U 24117T 25350.51062052 .00002846 00000-0 10812-3 0 9991
2 60108 53.1604 63.3209 0001168 95.2898 264.8236 15.30216024 84159
Epoch: Dec 16, 2025 • Age: 19 hours

現在のステータス

高度 480.7 km
速度 7.63 km/s
衛星直下点 52.14°N, 64.33°W
打ち上げ日 Jun 23, 2024
運用期間 1.4 years
タイプ internet

技術仕様

分類 Payload
質量 730.00 kg
乾燥質量 700.00 kg
総質量 730.00 kg
長さ 0.30 m
直径 4.10 m
スパン 29.00 m
形状 Box + pan
製造者 SPXS
バスタイプ Starlink V2M
フェーズステータス In Orbit
所有者/国 SPXS/US

大規模コンステレーション

Loading constellations...